Location: Unspecified
(41.9031°N, 12.4386°E)
Time: 16:48:03
(UTC+02:00)

ISS - Pass Details

Date: 30 May 2020
Orbit: 417 x 420 km, 51.6° (Epoch: 25 May)

Event Time Altitude Azimuth Distance (km) Brightness Sun altitude
Rises 21:34:51 0° 308° (NW) 2,366 2.5 -9.4°
Reaches altitude 10° 21:37:04 10° 317° (NW) 1,500 0.7 -9.7°
Maximum altitude 21:40:12 35° 26° (NNE) 696 -2.5 -10.2°
Enters shadow 21:43:15 10° 94° (E) 1,469 -1.5 -10.6°
